EW8578 Weather Reports


time (UTC)temp
F
wind
direction
speed
knots
gust
knots
rain 1hr
in
rain 24hr
in
rain mn
in
humidity
%
barometer
mb
20260507131007 51 22 0.9 3.5 0.00 0.00 0.00 58 1016.7
20260507130507 51 15 1.7 2.6 0.00 0.00 0.00 57 1016.7
20260507130006 51 9 0.9 2.6 0.00 0.00 0.00 56 1016.7
20260507125506 50 5 1.7 4.3 0.00 0.00 0.00 59 1016.8
20260507124504 50 5 1.7 3.5 0.00 0.00 0.00 60 1016.8
20260507124002 50 5 1.7 3.5 0.00 0.00 0.00 61 1016.8
20260507123502 50 360 1.7 2.6 0.00 0.00 0.00 59 1016.9
20260507123002 50 355 1.7 3.5 0.00 0.00 0.00 58 1016.9
20260507122501 50 24 1.7 3.5 0.00 0.00 0.00 61 1016.8
20260507122104 50 9 2.6 3.5 0.00 0.00 0.00 61 1016.9
20260507121601 50 5 1.7 3.5 0.00 0.00 0.00 59 1016.9
20260507121059 50 5 1.7 2.6 0.00 0.00 0.00 58 1016.9
20260507120559 50 28 0.9 2.6 0.00 0.00 0.00 57 1016.9
20260507120059 50 17 0.9 2.6 0.00 0.00 0.00 56 1016.9
20260507115558 49 24 1.7 3.5 0.00 0.00 0.00 57 1016.9
20260507114558 49 14 1.7 3.5 0.00 0.00 0.00 60 1017.0
20260507114157 49 9 1.7 3.5 0.00 0.00 0.00 60 1017.0
20260507113559 49 5 1.7 4.3 0.00 0.00 0.00 61 1017.0
20260507113128 49 9 1.7 3.5 0.00 0.00 0.00 61 1017.0
20260507112556 49 5 1.7 3.5 0.00 0.00 0.00 64 1017.1
20260507112057 48 5 1.7 3.5 0.00 0.00 0.00 62 1017.2
20260507111553 48 12 1.7 3.5 0.00 0.00 0.00 63 1017.2
20260507111052 48 5 1.7 4.3 0.00 0.00 0.00 64 1017.2
20260507110552 48 5 2.6 4.3 0.00 0.00 0.00 64 1017.3
20260507110052 47 360 2.6 4.3 0.00 0.00 0.00 65 1017.2
20260507105551 48 360 2.6 4.3 0.00 0.00 0.00 66 1017.2
20260507104600 47 5 2.6 4.3 0.00 0.00 0.00 66 1017.2
20260507104050 47 5 1.7 4.3 0.00 0.00 0.00 66 1017.2
20260507103650 47 5 2.6 4.3 0.00 0.00 0.00 66 1017.2
20260507103050 47 360 2.6 4.3 0.00 0.00 0.00 66 1017.2
20260507102549 47 360 1.7 4.3 0.00 0.00 0.00 66 1017.2
20260507102050 47 5 2.6 4.3 0.00 0.00 0.00 67 1017.2
20260507101553 47 9 1.7 3.5 0.00 0.00 0.00 66 1017.2
20260507101050 47 5 0.9 4.3 0.00 0.00 0.00 68 1017.2
20260507100548 46 5 2.6 4.3 0.00 0.00 0.00 66 1017.2
20260507100056 47 5 2.6 4.3 0.00 0.00 0.00 65 1017.2
20260507095547 47 5 1.7 3.5 0.00 0.00 0.00 66 1017.2
20260507094552 47 5 0.9 3.5 0.00 0.00 0.00 66 1017.1
20260507094051 47 5 1.7 2.6 0.00 0.00 0.00 66 1017.1
20260507093548 47 15 0.9 2.6 0.00 0.00 0.00 67 1017.1
20260507093046 47 13 0.9 3.5 0.00 0.00 0.00 69 1017.1
20260507092545 46 17 0.9 3.5 0.00 0.00 0.00 71 1017.2
20260507092049 46 10 1.7 3.5 0.00 0.00 0.00 72 1017.2
20260507091547 46 5 0.9 3.5 0.00 0.00 0.00 73 1017.2
20260507091043 46 11 0.9 3.5 0.00 0.00 0.00 74 1017.2
20260507090543 46 11 0.9 3.5 0.00 0.00 0.00 75 1017.2
20260507090041 45 5 1.7 4.3 0.00 0.00 0.00 75 1017.2
20260507085540 45 5 1.7 4.3 0.00 0.00 0.00 76 1017.2
20260507084550 45 5 1.7 4.3 0.00 0.00 0.00 76 1017.1
20260507084038 45 5 0.9 4.3 0.00 0.00 0.00 77 1017.1
20260507083536 44 5 1.7 4.3 0.00 0.00 0.00 77 1017.1
20260507083035 44 5 1.7 3.5 0.00 0.00 0.00 77 1017.0
20260507082535 44 312 0.9 2.6 0.00 0.00 0.00 77 1017.1
20260507082034 44 49 0.0 1.7 0.00 0.00 0.00 79 1017.1
20260507081532 43 97 0.9 1.7 0.00 0.00 0.00 80 1017.0
20260507081031 42 103 0.9 2.6 0.00 0.00 0.00 80 1017.0
20260507080529 41 132 0.9 2.6 0.00 0.00 0.00 81 1017.0
20260507080030 41 109 0.9 2.6 0.00 0.00 0.00 79 1017.0
20260507075530 41 99 0.9 2.6 0.00 0.00 0.00 79 1017.0
20260507074528 41 101 0.9 2.6 0.00 0.00 0.00 81 1016.9
20260507074026 41 115 0.9 2.6 0.00 0.00 0.00 81 1016.9
20260507073525 40 124 0.9 1.7 0.00 0.00 0.00 81 1016.9
20260507073026 40 128 0.9 1.7 0.00 0.00 0.00 81 1016.8
20260507072524 40 84 0.0 1.7 0.00 0.00 0.00 82 1016.8
20260507072023 39 84 0.0 1.7 0.00 0.00 0.00 81 1016.8
20260507071523 39 101 0.0 1.7 0.00 0.00 0.00 81 1016.7
20260507071022 39 101 0.9 2.6 0.00 0.00 0.00 81 1016.8
20260507070522 39 100 0.9 2.6 0.00 0.00 0.00 80 1016.8
20260507070024 39 100 0.0 1.7 0.00 0.00 0.00 80 1016.8
20260507065522 39 100 0.0 0.9 0.00 0.00 0.00 80 1016.7
20260507064523 39 100 0.0 0.9 0.00 0.00 0.00 80 1016.7
20260507064023 40 100 0.0 0.9 0.00 0.00 0.00 80 1016.7
20260507063523 40 100 0.0 0.9 0.00 0.00 0.00 80 1016.7
20260507063022 40 100 0.0 0.0 0.00 0.00 0.00 81 1016.8
20260507062521 40 100 0.0 0.0 0.00 0.00 0.00 81 1016.7
20260507062021 39 100 0.0 0.9 0.00 0.00 0.00 81 1016.7
20260507061521 39 100 0.0 0.9 0.00 0.00 0.00 81 1016.7
20260507061020 39 100 0.0 0.9 0.00 0.00 0.00 81 1016.8
20260507060520 39 100 0.0 0.9 0.00 0.00 0.00 82 1016.7
20260507060031 39 100 0.0 0.9 0.00 0.00 0.00 82 1016.7
20260507055519 39 100 0.0 0.0 0.00 0.00 0.00 82 1016.6
20260507054525 38 100 0.0 0.9 0.00 0.00 0.00 82 1016.6
20260507054020 38 100 0.0 1.7 0.00 0.00 0.00 82 1016.6
20260507053518 37 100 0.0 1.7 0.00 0.00 0.00 82 1016.6
20260507053016 37 100 0.9 2.6 0.00 0.00 0.00 82 1016.6
20260507052519 37 105 0.9 2.6 0.00 0.00 0.00 82 1016.5
20260507052016 37 117 0.9 2.6 0.00 0.00 0.00 82 1016.5
20260507051516 37 101 1.7 2.6 0.00 0.00 0.00 81 1016.4
20260507051018 36 102 1.7 2.6 0.00 0.00 0.00 81 1016.3
20260507050513 36 96 0.9 2.6 0.00 0.00 0.00 82 1016.3
20260507050035 36 86 0.9 2.6 0.00 0.00 0.00 82 1016.2
20260507045513 36 88 0.9 1.7 0.00 0.00 0.00 82 1016.2
20260507044521 36 74 0.9 2.6 0.00 0.00 0.00 82 1016.2
20260507044014 36 101 0.9 2.6 0.00 0.00 0.00 82 1016.2
20260507043514 36 91 0.9 2.6 0.00 0.00 0.00 82 1016.2
20260507043014 36 91 1.7 2.6 0.00 0.00 0.00 81 1016.2
20260507042514 36 88 0.9 2.6 0.00 0.00 0.00 81 1016.2
20260507042014 35 101 1.7 2.6 0.00 0.00 0.00 81 1016.2
20260507041513 35 91 0.9 2.6 0.00 0.00 0.00 81 1016.2
20260507041013 35 91 0.9 2.6 0.00 0.00 0.00 80 1016.1
20260507040512 35 91 0.9 3.5 0.00 0.00 0.00 80 1016.1
20260507040014 35 97 1.7 3.5 0.00 0.00 0.00 80 1016.1
20260507035512 35 98 1.7 3.5 0.00 0.00 0.00 80 1016.1
20260507034512 35 103 2.6 3.5 0.00 0.00 0.00 80 1016.0
20260507034017 35 101 2.6 3.5 0.00 0.00 0.00 80 1016.0
20260507033511 35 98 2.6 5.2 0.00 0.00 0.00 80 1016.0
20260507033016 35 96 2.6 5.2 0.00 0.00 0.00 80 1016.0
20260507032511 35 105 2.6 5.2 0.00 0.00 0.00 80 1016.0
20260507032010 35 100 2.6 3.5 0.00 0.00 0.00 80 1016.0
20260507031510 35 103 2.6 3.5 0.00 0.00 0.00 79 1015.9
20260507031010 35 101 2.6 3.5 0.00 0.00 0.00 79 1015.9
20260507030510 35 96 2.6 5.2 0.00 0.00 0.00 79 1016.0
20260507030009 35 104 2.6 5.2 0.00 0.00 0.00 79 1016.0
20260507025509 35 97 2.6 5.2 0.00 0.00 0.00 78 1015.8
20260507024515 35 113 2.6 5.2 0.00 0.00 0.00 79 1015.8
20260507024009 35 105 2.6 5.2 0.00 0.00 0.00 78 1015.8
20260507023509 35 113 1.7 5.2 0.00 0.00 0.00 78 1015.8
20260507023007 35 102 2.6 3.5 0.00 0.00 0.00 78 1015.7
20260507022506 35 92 2.6 3.5 0.00 0.00 0.00 78 1015.7
20260507022006 35 96 2.6 3.5 0.00 0.00 0.00 78 1015.7
20260507021516 36 105 2.6 3.5 0.00 0.00 0.00 78 1015.7
20260507021005 36 112 2.6 3.5 0.00 0.00 0.00 78 1015.6
20260507020505 36 111 2.6 3.5 0.00 0.00 0.00 78 1015.6
20260507020005 36 92 1.7 3.5 0.00 0.00 0.00 78 1015.6
20260507015506 36 76 1.7 5.2 0.00 0.00 0.00 78 1015.7
20260507014503 36 94 2.6 5.2 0.00 0.00 0.00 78 1015.6
20260507014002 36 110 2.6 5.2 0.00 0.00 0.00 78 1015.6
20260507013502 36 109 2.6 5.2 0.00 0.00 0.00 78 1015.6
20260507013004 36 98 2.6 3.5 0.00 0.00 0.00 78 1015.7
20260507012502 36 98 1.7 3.5 0.00 0.00 0.00 77 1015.6
20260507012100 36 110 2.6 3.5 0.00 0.00 0.00 77 1015.6
20260507011604 36 95 1.7 3.5 0.00 0.00 0.00 77 1015.5
20260507011057 36 106 1.7 3.5 0.00 0.00 0.00 77 1015.5
20260507010557 37 80 1.7 3.5 0.00 0.00 0.00 77 1015.5
20260507010056 37 86 1.7 3.5 0.00 0.00 0.00 76 1015.5
20260507005556 37 90 1.7 2.6 0.00 0.00 0.00 76 1015.5
20260507004555 38 137 0.9 2.6 0.00 0.00 0.00 77 1015.5
20260507004054 38 261 1.7 2.6 0.00 0.00 0.00 77 1015.5
20260507003553 38 239 0.9 2.6 0.00 0.00 0.00 77 1015.4
20260507003051 38 87 0.0 1.7 0.00 0.00 0.00 77 1015.5
20260507002551 37 82 0.0 2.6 0.00 0.00 0.00 77 1015.4
20260507002050 37 81 0.9 2.6 0.00 0.00 0.00 77 1015.4
20260507001548 37 94 0.0 2.6 0.00 0.00 0.00 77 1015.4
20260507001048 37 94 0.9 2.6 0.00 0.00 0.00 76 1015.4
20260507000547 37 96 1.7 2.6 0.00 0.00 0.00 76 1015.4
20260507000047 37 96 1.7 2.6 0.00 0.00 0.00 76 1015.4
20260506235547 37 93 0.9 3.5 0.00 0.00 0.00 75 1015.5
20260506234647 37 96 1.7 5.2 0.00 0.00 0.00 75 1015.4
20260506234047 37 88 2.6 5.2 0.00 0.00 0.00 75 1015.4
20260506233548 37 98 2.6 3.5 0.00 0.00 0.00 75 1015.4
20260506233048 37 113 1.7 3.5 0.00 0.00 0.00 75 1015.5
20260506232551 37 102 1.7 3.5 0.00 0.00 0.00 76 1015.4
20260506232047 37 98 1.7 3.5 0.00 0.00 0.00 75 1015.4
20260506231547 37 103 1.7 3.5 0.00 0.00 0.00 76 1015.5
20260506231047 37 96 1.7 3.5 0.00 0.00 0.00 76 1015.5
20260506230551 37 108 1.7 3.5 0.00 0.00 0.00 76 1015.4
20260506230045 37 104 1.7 3.5 0.00 0.00 0.00 76 1015.3
20260506225548 37 92 1.7 3.5 0.00 0.00 0.00 76 1015.2
20260506224547 37 106 0.9 2.6 0.00 0.00 0.00 77 1015.2
20260506224046 37 101 0.9 3.5 0.00 0.00 0.00 77 1015.2
20260506223543 37 99 1.7 3.5 0.00 0.00 0.00 77 1015.2
20260506223048 37 88 1.7 3.5 0.00 0.00 0.00 77 1015.2
20260506222545 37 93 1.7 3.5 0.00 0.00 0.00 77 1015.2
20260506222045 37 98 0.9 3.5 0.00 0.00 0.00 76 1015.2
20260506221543 37 89 0.9 3.5 0.00 0.00 0.00 76 1015.2
20260506221044 37 82 0.9 2.6 0.00 0.00 0.00 76 1015.2
20260506220543 38 80 0.9 1.7 0.00 0.00 0.00 76 1015.2
20260506220043 38 77 0.0 2.6 0.00 0.00 0.00 77 1015.2
20260506215542 38 73 0.9 2.6 0.00 0.00 0.00 77 1015.2
20260506214544 38 88 0.9 2.6 0.00 0.00 0.00 77 1015.1
20260506214143 38 86 1.7 3.5 0.00 0.00 0.00 77 1015.1
20260506213545 38 82 1.7 5.2 0.00 0.00 0.00 77 1015.1
20260506213042 38 67 2.6 6.1 0.00 0.00 0.00 77 1015.0
20260506212541 38 93 2.6 6.1 0.00 0.00 0.00 77 1015.0
20260506212042 38 86 2.6 5.2 0.00 0.00 0.00 76 1015.1
20260506211541 39 70 2.6 5.2 0.00 0.00 0.00 77 1015.1
20260506211041 39 98 2.6 3.5 0.00 0.00 0.00 76 1015.2
20260506210541 40 72 1.7 4.3 0.00 0.00 0.00 76 1015.2
20260506210041 40 121 0.9 4.3 0.00 0.00 0.00 76 1015.2
20260506205540 40 311 1.7 4.3 0.00 0.00 0.00 78 1015.2
20260506204552 39 100 0.0 3.5 0.00 0.00 0.00 76 1015.2
20260506204045 39 98 1.7 2.6 0.00 0.00 0.00 75 1015.1
20260506203541 39 80 1.7 3.5 0.00 0.00 0.00 75 1015.1
20260506203041 39 103 1.7 3.5 0.00 0.00 0.00 74 1015.1
20260506202541 40 92 1.7 3.5 0.00 0.00 0.00 74 1015.1
20260506202041 40 107 1.7 3.5 0.00 0.00 0.00 73 1015.1
20260506201541 40 63 0.9 3.5 0.00 0.00 0.00 73 1015.2
20260506201043 41 267 0.0 3.5 0.00 0.00 0.00 74 1015.2
20260506200541 40 279 0.9 5.2 0.00 0.00 0.00 73 1015.3
20260506200051 40 57 0.9 7.0 0.00 0.00 0.00 72 1015.3
20260506195540 40 103 0.0 2.6 0.00 0.00 0.00 71 1015.2
20260506194547 41 84 0.9 3.5 0.00 0.00 0.00 70 1015.1
20260506194040 41 84 1.7 3.5 0.00 0.00 0.00 70 1015.1
20260506193543 41 63 1.7 2.6 0.00 0.00 0.00 70 1015.1
20260506193039 41 90 1.7 5.2 0.00 0.00 0.00 69 1015.1
20260506192538 41 77 2.6 5.2 0.00 0.00 0.00 68 1015.1
20260506192041 41 66 1.7 5.2 0.00 0.00 0.00 68 1015.0
20260506191538 42 68 1.7 5.2 0.00 0.00 0.00 67 1015.0
20260506191037 42 65 1.7 5.2 0.00 0.00 0.00 66 1014.9
20260506190538 42 34 1.7 5.2 0.00 0.00 0.00 66 1014.9
20260506190039 42 28 1.7 5.2 0.00 0.00 0.00 66 1014.9
20260506185538 43 26 2.6 5.2 0.00 0.00 0.00 66 1014.8
20260506184540 43 19 2.6 8.7 0.00 0.00 0.00 69 1014.8
20260506184038 43 347 4.3 8.7 0.00 0.00 0.00 69 1014.8
20260506183538 43 13 2.6 7.8 0.00 0.00 0.00 69 1014.8
20260506183045 43 11 1.7 8.7 0.00 0.00 0.00 68 1014.7
20260506182537 43 24 3.5 8.7 0.00 0.00 0.00 68 1014.7
20260506182039 44 13 5.2 8.7 0.00 0.00 0.00 69 1014.7
20260506181537 44 9 3.5 7.8 0.00 0.00 0.00 65 1014.6
20260506181037 44 350 3.5 7.8 0.00 0.00 0.00 65 1014.6
20260506180539 44 360 3.5 7.0 0.00 0.00 0.00 64 1014.5
20260506180036 44 360 1.7 7.0 0.00 0.00 0.00 63 1014.5
20260506175539 44 360 3.5 7.0 0.00 0.00 0.00 62 1014.5
20260506174536 45 355 2.6 5.2 0.00 0.00 0.00 62 1014.5
20260506174036 45 360 1.7 5.2 0.00 0.00 0.00 60 1014.5
20260506173537 45 355 2.6 7.8 0.00 0.00 0.00 62 1014.5
20260506173036 45 360 2.6 7.8 0.00 0.00 0.00 64 1014.5
20260506172535 44 349 3.5 7.8 0.00 0.00 0.00 64 1014.4
20260506172035 44 355 5.2 7.8 0.00 0.00 0.00 65 1014.5
20260506171543 44 348 3.5 7.0 0.00 0.00 0.00 65 1014.5
20260506171035 44 323 3.5 7.8 0.00 0.00 0.00 64 1014.4
20260506170536 44 5 3.5 7.8 0.00 0.00 0.00 62 1014.4
20260506170042 44 350 4.3 8.7 0.00 0.00 0.00 62 1014.4
20260506165538 45 339 4.3 8.7 0.00 0.00 0.00 64 1014.4
20260506164544 45 5 3.5 7.0 0.00 0.00 0.00 62 1014.3
20260506164034 46 360 2.6 7.8 0.00 0.00 0.00 59 1014.4
20260506163532 47 355 4.3 7.8 0.00 0.00 0.00 59 1014.3
20260506163033 47 5 3.5 7.0 0.00 0.00 0.00 56 1014.3
20260506162534 47 29 1.7 7.0 0.00 0.00 0.00 59 1014.3
20260506162032 46 9 2.6 7.0 0.00 0.00 0.00 59 1014.3
20260506161539 45 40 2.6 5.2 0.00 0.00 0.00 58 1014.3
20260506161032 45 17 1.7 5.2 0.00 0.00 0.00 59 1014.3
20260506160534 45 10 1.7 7.8 0.00 0.01 0.00 60 1014.2
20260506160042 46 13 1.7 7.8 0.00 0.01 0.00 60 1014.2
20260506155532 47 23 2.6 7.8 0.00 0.01 0.00 60 1014.3
20260506154533 48 31 2.6 7.8 0.00 0.01 0.00 60 1014.4
20260506154033 48 23 2.6 7.8 0.00 0.01 0.00 59 1014.3
20260506153533 48 30 2.6 5.2 0.00 0.01 0.00 57 1014.3
20260506153032 48 5 0.9 3.5 0.00 0.01 0.00 55 1014.3
20260506152531 48 11 1.7 5.2 0.00 0.01 0.00 57 1014.3
20260506152031 48 19 1.7 5.2 0.00 0.01 0.00 57 1014.3
20260506151536 47 337 0.9 4.3 0.00 0.01 0.00 58 1014.3
20260506151030 48 23 2.6 4.3 0.00 0.01 0.00 61 1014.4
20260506150530 48 355 0.9 4.3 0.00 0.01 0.00 58 1014.4
20260506150032 47 5 1.7 4.3 0.00 0.01 0.00 60 1014.4
20260506145528 47 355 1.7 7.8 0.00 0.01 0.00 63 1014.4
20260506144529 46 360 0.9 7.8 0.00 0.01 0.00 62 1014.5
20260506144038 45 38 0.9 7.8 0.00 0.01 0.00 62 1014.5
20260506143528 45 37 0.0 4.3 0.00 0.01 0.00 58 1014.5
20260506143041 46 360 0.9 5.2 0.00 0.01 0.00 60 1014.6
20260506142528 45 55 1.7 5.2 0.00 0.01 0.00 59 1014.6
20260506142028 46 36 1.7 5.2 0.00 0.01 0.00 61 1014.6
20260506141527 46 5 0.9 4.3 0.00 0.01 0.00 57 1014.6
20260506141029 46 88 0.9 4.3 0.00 0.01 0.00 57 1014.5
20260506140527 46 173 0.0 4.3 0.00 0.01 0.00 58 1014.4
20260506140033 46 196 1.7 5.2 0.00 0.01 0.00 59 1014.3
20260506135528 46 193 1.7 6.1 0.00 0.01 0.00 57 1014.4
20260506134527 47 204 4.3 6.1 0.00 0.01 0.00 61 1014.4
20260506134026 47 221 1.7 5.2 0.00 0.01 0.00 62 1014.4
20260506133526 46 211 1.7 5.2 0.00 0.01 0.00 61 1014.5
20260506133026 47 225 3.5 6.1 0.00 0.01 0.00 62 1014.5
20260506132524 46 197 1.7 4.3 0.00 0.01 0.00 65 1014.4
20260506132024 46 202 2.6 4.3 0.00 0.01 0.00 63 1014.6
20260506131526 47 226 1.7 6.1 0.00 0.01 0.00 66 1014.6